Regional Weather Roundup
Issued by NWS

Home | Current Version | Previous Version | Text Only | Print | Product List | Glossary Off
Versions: 1 2 3 4 5 6 7 8 9 10 11 12 13 14 15 16 17 18 19 20 21 22 23 24 25 26 27 28 29 30 31 32 33 34 35 36 37 38 39 40 41 42 43 44 45 46 47 48 49 50

000
ASUS43 KLOT 011306
RWRIL

ILLINOIS REGIONAL WEATHER ROUNDUP
NATIONAL WEATHER SERVICE CHICAGO/ROMEOVILLE IL
700 AM CST SUN FEB 01 2015

NOTE: "FAIR" INDICATES FEW OR NO CLOUDS BELOW 12,000 FEET WITH NO
SIGNIFICANT WEATHER AND/OR OBSTRUCTIONS TO VISIBILITY.

* THESE STATIONS ARE NOT UNDER NWS QUALITY CONTROL. THEY ALSO MAY NOT
  REPORT WEATHER SUCH AS PRECIPITATION OR FOG.

ILZ001-002-007-009-015-016-024-011400-
NORTHWEST ILLINOIS

CITY           SKY/WX    TMP DP  RH WIND       PRES   REMARKS
MOLINE         LGT SNOW  32  31  96 E12       29.85S VSB 1   WCI  23
STERLING*        N/A    N/A N/A N/A MISG        N/A
SAVANNA*       LGT SNOW  29  27  92 NE17      29.92R WCI  17
$$

ILZ003-004-008-010-011-017-018-011400-
NORTH CENTRAL ILLINOIS

CITY           SKY/WX    TMP DP  RH WIND       PRES   REMARKS
ROCKFORD       LGT SNOW  27  24  89 NE18G28   29.96F VSB 1   WCI  14
FREEPORT*      LGT SNOW  26  24  92 NE24      29.96F WCI  10
ROCHELLE*      LGT SNOW  30  29  98 NE16      29.91F VSB 3/4 WCI  18
DE KALB*       LGT SNOW  29  28  96 E17       29.93F VSB 3/4 WCI  16
PERU*          SNOW      33  33 100 E7        29.88F VSB 1/2 WCI  27
$$

ILZ005-006-012>014-019>023-011400-
NORTHEAST ILLINOIS

CITY           SKY/WX    TMP DP  RH WIND       PRES   REMARKS
CHICAGO-OHARE  SNOW      30  29  96 NE16      29.95F VSB 1/2 WCI  19
CHICAGO-MIDWAY LGT SNOW  33  31  92 NE13      29.95F VSB 3/4 WCI  24
AURORA         SNOW      31  28  89 NE20      29.92F VSB 1/2 WCI  19
LANSING*       LGT SNOW  32  32 100 E5        29.95F WCI  27
JOLIET*        SNOW      32  31  97 NE5       29.93F VSB 1/2 WCI  27
WAUKEGAN       SNOW      27  26  96 NE20G31   30.01F VSB 1/2 WCI  13
DUPAGE AIRPORT LGT SNOW  31  28  89 NE14      29.93F VSB 1   WCI  21
KANKAKEE*      LGT SNOW  32  32  99 E9        29.92F WCI  25
WHEELING       LGT SNOW  30  28  92 NE13G23   29.99F VSB 3/4 WCI  20
MORRIS*        LGT SNOW  32  32 100 E6        29.90F VSB 3/4 WCI  27
ROMEOVILLE*    LGT SNOW  31  31 100 E8        29.92F WCI  24
NORTHERLY ISL    N/A     31  30  96 E15         N/A  WCI  20
$$

LMZ740>746-011400-
SOUTHERN LAKE MICHIGAN

STATION/POSITION SKY/WX   TEMP    WIND        PRES    VSBY  WAVE
                          AIR SEA DIR/SP/G                  HT/PER
                          (F)     (DEG/KT/KT) (MB)    (MI)  (FT/S)
WAUKEGAN HARBOR            28      60/ 26/ 35   N/A
HARRISON CRIB              31      80/ 20/ 22   N/A
BURNHAM HARBOR             31      70/ 16/ 16   N/A
CALUMET HARBOR             31      60/ 12/ 14   N/A
MICHIGAN CITY              30      50/ 10/ 12   N/A
$$

ILZ025>027-034>036-040-047-049-050-058-095>099-011400-
WEST-CENTRAL ILLINOIS

CITY           SKY/WX    TMP DP  RH WIND       PRES   REMARKS
QUINCY         LGT SNOW  33  31  92 SE9       29.76F FOG     WCI  25
GALESBURG*     LGT SNOW  32  32 100 E6        29.81F WCI  26
MACOMB*        CLOUDY    32  32 100 SE8       29.82F WCI  25
JACKSONVILLE*  LGT SNOW  35  33  94 E3        29.80F
PITTSFIELD*    MIX PCPN  33  32  96 SE5       29.78F WCI  29
$$

ILZ028>032-037-038-041>044-048-051>054-059>061-011400-
CENTRAL ILLINOIS

CITY           SKY/WX    TMP DP  RH WIND       PRES   REMARKS
PONTIAC        LGT SNOW  33  33 100 E15       29.88F VSB 1   WCI  23
BLOOMINGTON    LGT SNOW  33  33 100 SE12      29.85F FOG     WCI  24
DECATUR        LGT SNOW  33  31  92 SE15      29.84F VSB 1   WCI  23
PEORIA         SNOW      34  32  92 E9        29.83F VSB 1/2 WCI  27
LACON*         LGT SNOW  32  31  98 E6        29.85F WCI  26
LINCOLN*       LGT SNOW  34  33  97 SE9       29.84F WCI  26
SPRINGFIELD    LGT SNOW  33  32  96 SE12      29.81F FOG     WCI  24
TAYLORVILLE    LGT SNOW  32  32 100 SE13      29.81F WCI  22
$$

ILZ033-039-045-046-055>057-062-063-011400-
EAST-CENTRAL ILLINOIS

CITY           SKY/WX    TMP DP  RH WIND       PRES   REMARKS
CHAMPAIGN      SNOW      33  31  92 SE15      29.88F VSB 1/2 WCI  23
DANVILLE*      CLOUDY    33  31  93 SE13      29.90F WCI  24
RANTOUL*       LGT SNOW  34  33  97 E10       29.88F WCI  26
MATTOON        LGT SNOW  32  30  92 SE13      29.87F VSB 3/4 WCI  22
PARIS*         LGT SNOW  34  30  88 CALM      29.93F
$$

ILZ079-100>102-011400-
SOUTHWEST ILLINOIS

CITY           SKY/WX    TMP DP  RH WIND       PRES   REMARKS
ALTON          CLOUDY    34  32  93 SE14      29.80F WCI  24
BELLEVILLE     MIX PCPN  34  34 100 E8        29.81F FOG     WCI  27
CAHOKIA*       LGT RAIN  36  34  92 E7        29.80F FOG     WCI  30
SPARTA*        HVY RAIN  37  36  96 CALM      29.82F
$$

ILZ064>066-069>071-074>076-080>082-084>086-088>090-092>094-011400-
SOUTH-CENTRAL ILLINOIS

CITY           SKY/WX    TMP DP  RH WIND       PRES   REMARKS
CARBONDALE     RAIN      40  35  83 S8        29.81F
CAIRO*         RAIN      45  38  76 S14       29.83F
EFFINGHAM*     RAIN      33  30  87 NE6       29.88F WCI  28
MARION         LGT RAIN  41  37  87 S12       29.82F
MT. VERNON     CLOUDY    36  30  80 E6        29.84F WCI  31
CENTRALIA*     RAIN      35  32  89 E3        29.84S
SALEM*         MIX PCPN  37  33  88 CALM      29.88R
METROPOLIS*    HVY RAIN  44  37  77 S13G18    29.84F
$$

ILZ067-068-072-073-078-083-087-091-011400-
SOUTHEAST ILLINOIS

CITY           SKY/WX    TMP DP  RH WIND       PRES   REMARKS
LAWRENCEVILLE  RAIN      36  30  79 E5        29.91F WCI  32
FLORA*         LGT RAIN  35  32  90 E8        29.86F WCI  28
FAIRFIELD*     RAIN      36  34  92 E6        29.84F WCI  31
HARRISBURG*    RAIN      42  34  73 S10       29.86F
ROBINSON*      LGT SNOW  35  28  75 E5        29.93S WCI  31
CARMI*         LGT RAIN  39  35  84 SE9       29.85F WCI  33
$$

ABBREVIATIONS USED IN REMARKS
   TC - TEMPERATURE IN CELSIUS
  WCI - WIND CHILL INDEX
   HX - HEAT INDEX
  VSB - VISIBILITY
$$




USA.gov is the U.S. government's official web portal to all federal, state and local government web resources and services.